Owen Roberts, Cayman Islands

8:35 AM EST on May 27, 2017 (GMT -0500)
Roberts International

Weather History for MWCR - May, 2013

Change the Weather History Date:

Sunday, May 19, 2013

  Actual Average Record
Temperature  
Mean Temperature 84 °F -  
Max Temperature 90 °F 86 °F 90 °F (2013)
Min Temperature 78 °F 78 °F 75 °F (2004)
Cooling Degree Days 19    
Growing Degree Days 34 (Base 50)    
Moisture  
Dew Point 78 °F    
Average Humidity 79    
Maximum Humidity 89    
Minimum Humidity 64    
Precipitation  
Precipitation 0.00 in - - ()
Sea Level Pressure  
Sea Level Pressure 29.98 in    
Wind  
Wind Speed 9 mph ()    
Max Wind Speed 16 mph    
Max Gust Speed -    
Visibility 6.2 miles    
Events      
Averages and records for this station are not official NWS values.
T = Trace of Precipitation, MM = Missing Value Source: Averaged Metar Reports

Daily Weather History Graph

Daily Weather History Graph

Search for Another Location

Airport or City:

Trip Planner

Search our weather history database for the weather conditions in past years. The results will help you decide how hot, cold, wet, or windy it might be!

Date:

Astronomy

May. 19, 2013 Rise Set
Actual Time 5:49 AM EST 6:54 PM EST
Civil Twilight 5:25 AM EST 7:18 PM EST
Nautical Twilight 4:57 AM EST 7:46 PM EST
Astronomical Twilight 4:28 AM EST 8:15 PM EST
Moon 1:42 PM EST (5/19) 1:23 AM EST (5/19)
Length of Visible Light 13h 53m
Length of Day
13h 05m
Waxing Gibbous, 65% of the Moon is Illuminated
May 19
Waxing Gibbous
May 24
Full
May 31
Last Quarter
Jun 8
New
Jun 16
First Quarter

Hourly Weather History & Observations

Time (EST) Temp. Heat Index Dew Point Humidity Pressure Visibility Wind Dir Wind Speed Gust Speed Precip Events Conditions
5:57 AM 80.6 °F 87.1 °F 77.0 °F 89% 29.98 in 6.2 mi East 10.4 mph - N/A   Partly Cloudy
6:52 AM 82.4 °F 90.9 °F 77.0 °F 84% 30.01 in 6.2 mi East 9.2 mph - N/A   Partly Cloudy
7:00 AM 82 °F - 77 °F 82% 30.01 in 6 mi East 9.2 mph - -   Scattered Clouds
7:54 AM 84.2 °F 96.1 °F 78.8 °F 84% 30.01 in 6.2 mi East 12.7 mph - N/A   Partly Cloudy
8:52 AM 84.2 °F 94.1 °F 77.0 °F 79% 30.01 in 6.2 mi East 12.7 mph - N/A   Scattered Clouds
9:58 AM 86.0 °F 96.9 °F 77.0 °F 74% 30.01 in 6.2 mi East 12.7 mph - N/A   Unknown
10:55 AM 87.8 °F 99.7 °F 77.0 °F 70% 30.01 in 6.2 mi East 9.2 mph - N/A   Unknown
11:54 AM 87.8 °F 99.7 °F 77.0 °F 70% 29.98 in 6.2 mi ESE 11.5 mph - N/A   Unknown
12:53 PM 87.8 °F 99.7 °F 77.0 °F 70% 29.98 in 6.2 mi ESE 16.1 mph - N/A   Partly Cloudy
1:00 PM 88 °F - 77 °F 64% 29.99 in 6 mi ESE 16.1 mph - -   Scattered Clouds
2:00 PM 86.0 °F 99.3 °F 78.8 °F 79% 29.95 in 6.2 mi SE 6.9 mph - N/A   Scattered Clouds
3:00 PM 86.0 °F 99.3 °F 78.8 °F 79% 29.95 in 6.2 mi East 8.1 mph - N/A   Scattered Clouds
4:00 PM 86.0 °F 96.9 °F 77.0 °F 74% 29.92 in 6.2 mi SE 8.1 mph - N/A   Scattered Clouds
5:00 PM 86.0 °F 96.9 °F 77.0 °F 74% 29.92 in 6.2 mi ESE 6.9 mph - N/A   Scattered Clouds
6:00 PM 84.2 °F 94.1 °F 77.0 °F 79% 29.92 in 6.2 mi ESE 6.9 mph - N/A   Scattered Clouds
7:00 PM 83 °F - 78 °F 82% 29.97 in 6 mi East 5.8 mph - -   Scattered Clouds
7:00 PM 84.2 °F 96.1 °F 78.8 °F 84% 29.95 in 6.2 mi East 5.8 mph - N/A   Scattered Clouds
8:00 PM 82.4 °F 92.4 °F 78.8 °F 89% 29.98 in 6.2 mi East 8.1 mph - N/A   Partly Cloudy
9:00 PM 82.4 °F 92.4 °F 78.8 °F 89% 29.98 in 6.2 mi ESE 3.5 mph - N/A   Partly Cloudy